Weather History for KTMB - May, 2013

Change the Weather History Date:

Monday, May 6, 2013

  Actual Average Record
Temperature  
Mean Temperature 70 °F -  
Max Temperature 86 °F 85 °F 91 °F (2006)
Min Temperature 57 °F 62 °F 53 °F (1997)
Cooling Degree Days 6    
Growing Degree Days 20 (Base 50)    
Moisture  
Dew Point 58 °F    
Average Humidity 64    
Maximum Humidity 93    
Minimum Humidity 35    
Precipitation  
Precipitation 0.00 in - - ()
Sea Level Pressure  
Sea Level Pressure 29.99 in    
Wind  
Wind Speed 6 mph (WNW)    
Max Wind Speed 14 mph    
Max Gust Speed -    
Visibility 10 miles    
Events      
Averages and records for this station are not official NWS values.
T = Trace of Precipitation, MM = Missing Value Source: NWS Daily Summary

Daily Weather History Graph

Daily Weather History Graph

Search for Another Location

Airport or City:

Trip Planner

Search our weather history database for the weather conditions in past years. The results will help you decide how hot, cold, wet, or windy it might be!

Date:

Astronomy

May. 06, 2013 Rise Set
Actual Time 6:41 AM EDT 7:55 PM EDT
Civil Twilight 6:17 AM EDT 8:20 PM EDT
Nautical Twilight 5:47 AM EDT 8:49 PM EDT
Astronomical Twilight 5:18 AM EDT 9:19 PM EDT
Moon 4:23 AM EDT (5/6) 5:09 PM EDT (5/6)
Length of Visible Light 14h 03m
Length of Day
13h 14m
Waning Crescent, 11% of the Moon is Illuminated
May 6
Waning Crescent
May 9
New
May 18
First Quarter
May 25
Full
May 31
Last Quarter

Hourly Weather History & Observations

Time (EDT) Temp. Heat Index Dew Point Humidity Pressure Visibility Wind Dir Wind Speed Gust Speed Precip Events Conditions
12:53 AM 64.0 °F - 59.0 °F 84% 29.96 in 10.0 mi NNW 6.9 mph - N/A   Clear
1:53 AM 64.9 °F - 55.9 °F 73% 29.95 in 10.0 mi NNW 6.9 mph - N/A   Clear
2:53 AM 63.0 °F - 55.0 °F 75% 29.94 in 10.0 mi NW 5.8 mph - N/A   Clear
3:53 AM 62.1 °F - 55.9 °F 80% 29.95 in 10.0 mi NW 5.8 mph - N/A   Clear
4:53 AM 57.9 °F - 55.0 °F 90% 29.96 in 10.0 mi WNW 3.5 mph - N/A   Clear
5:53 AM 57.0 °F - 55.0 °F 93% 29.97 in 10.0 mi Calm Calm - N/A   Clear
6:53 AM 59.0 °F - 57.0 °F 93% 29.99 in 10.0 mi Calm Calm - N/A   Clear
7:53 AM 64.9 °F - 60.1 °F 84% 30.02 in 10.0 mi NNE 3.5 mph - N/A   Clear
8:53 AM 71.1 °F - 57.9 °F 63% 30.04 in 10.0 mi NNW 4.6 mph - N/A   Clear
9:53 AM 75.0 °F - 60.1 °F 60% 30.03 in 10.0 mi NNW 6.9 mph - N/A   Clear
10:53 AM 77.0 °F - 55.0 °F 47% 30.04 in 10.0 mi North 5.8 mph - N/A   Clear
11:53 AM 79.0 °F - 55.9 °F 45% 30.02 in 10.0 mi West 3.5 mph - N/A   Clear
12:53 PM 82.0 °F 81.6 °F 55.9 °F 41% 30.01 in 10.0 mi NW 8.1 mph - N/A   Clear
1:53 PM 82.0 °F 81.4 °F 55.0 °F 39% 30.00 in 10.0 mi Calm Calm - 0.00 in   Partly Cloudy
2:53 PM 84.9 °F 83.7 °F 55.9 °F 37% 29.98 in 10.0 mi West 9.2 mph - N/A   Scattered Clouds
3:53 PM 84.9 °F 83.6 °F 55.0 °F 36% 29.96 in 10.0 mi West 9.2 mph - 0.00 in   Scattered Clouds
4:53 PM 84.0 °F 82.6 °F 54.0 °F 35% 29.95 in 10.0 mi West 8.1 mph - N/A   Partly Cloudy
5:53 PM 82.9 °F 82.6 °F 57.9 °F 42% 29.95 in 10.0 mi West 12.7 mph - N/A   Partly Cloudy
6:53 PM 80.1 °F 80.9 °F 60.1 °F 50% 29.95 in 10.0 mi West 13.8 mph - N/A   Clear
7:53 PM 75.0 °F - 62.1 °F 64% 29.97 in 10.0 mi West 11.5 mph - N/A   Clear
8:53 PM 73.0 °F - 63.0 °F 71% 29.99 in 10.0 mi West 8.1 mph - N/A   Clear
9:53 PM 72.0 °F - 64.0 °F 76% 30.01 in 10.0 mi WSW 6.9 mph - N/A   Clear
10:53 PM 71.1 °F - 64.0 °F 78% 30.02 in 10.0 mi WSW 6.9 mph - N/A   Clear
11:53 PM 70.0 °F - 64.9 °F 84% 30.02 in 10.0 mi Calm Calm - N/A   Scattered Clouds